{"data":{"norad_id":54135,"intl_designator":"2022-138Y","name":"ONEWEB-0517","alt_names":[],"object_type":"PAYLOAD","status":"ACTIVE","operator":null,"country":"UK","launch_date":"2022-10-22","launch_site_code":"SRILR","launch_vehicle":null,"mission":null,"orbit_class":"UNKNOWN","rcs_meters":null,"size_class":null,"mass_kg":null,"dimensions":null,"purposes":["comms"],"wikipedia_slug":null,"has_3d_model":false,"image_url":null,"decayed_at":null,"tle_current":{"epoch":"2026-09-20T01:11:01.560768Z","epoch_age_seconds":64783,"freshness":"FRESH","line1":"1 54135U 22138Y   26263.04932362  .00000024  00000+0  28207-4 0  9990","line2":"2 54135  87.9113 286.0685 0002182  95.5480 264.5902 13.19725937189348","mean_motion":13.19725937,"eccentricity":0.0002182,"inclination_deg":87.9113,"raan_deg":286.0685,"arg_perigee_deg":95.548,"mean_anomaly_deg":264.5902,"bstar":2.8207e-5,"rev_number":18934,"period_min":109.11356362923,"perigee_km":1184.1165279218,"apogee_km":1187.4174156151,"semimajor_km":7563.9039717685,"source":"CELESTRAK","updated_at":"2026-09-20T09:00:44.719761Z"}}}